Regional Weather Roundup
Issued by NWS

Home | Current Version | Previous Version | Text Only | Print | Product List | Glossary On
Versions: 1 2 3 4 5 6 7 8 9 10 11 12 13 14 15 16 17 18 19 20 21 22 23 24 25 26 27 28 29 30 31 32 33 34 35 36 37 38 39 40 41 42 43 44 45 46 47 48 49 50
000
ASUS45 KREV 270510
RWRNV
NEVADA REGIONAL WEATHER ROUNDUP
NATIONAL WEATHER SERVICE RENO NV
900 PM PST SUN FEB 26 2017

NOTE: "FAIR" INDICATES FEW OR NO CLOUDS BELOW 12,000 FEET WITH NO
SIGNIFICANT WEATHER AND/OR OBSTRUCTIONS TO VISIBILITY.

NVZ001-003-004-270600-
WESTERN NEVADA

CITY           SKY/WX    TMP DP  RH WIND       PRES   REMARKS
RENO           MOCLDY    36  17  46 W5G16     29.68S
CARSON CITY    MOCLDY    34  19  55 SW8       29.70S
MINDEN         MOCLDY    32  19  59 W7        29.70F
PYRAMID LAKE     N/A     36 N/A N/A S21         N/A
FALLON         CLOUDY    37  21  52 NW10      29.70R
LOVELOCK       CLOUDY    35  18  49 W8        29.69S
HAWTHORNE      CLEAR     41  12  30 S10       29.68S
$$

NVZ002-CAZ072-073-270600-
NORTHERN AND CENTRAL SIERRA

CITY           SKY/WX    TMP DP  RH WIND       PRES   REMARKS
S. LAKE TAHOE  LGT SNOW  27  19  72 S23G41    29.66R VSB 1
TRUCKEE        LGT SNOW  27  21  80 SW9       29.68F
SQUAW VLY 8000   N/A     21  21 100 S22         N/A
SUSANVILLE     CLEAR    N/A N/A N/A CALM      29.67F
MAMMOTH LAKES  FAIR      24  14  67 SE9       29.70S
BRIDGEPORT     FLURRIES  26  13  57 SW9G22    29.67F
$$

NVZ030-031-036-270600-
NORTHERN NEVADA

CITY           SKY/WX    TMP DP  RH WIND       PRES   REMARKS
ELKO           LGT SNOW  30  25  81 CALM      29.65R
WINNEMUCCA     NOT AVBL
WENDOVER       CLOUDY    37  21  52 CALM      29.62F
$$

NVZ035-037-270600-
CENTRAL NEVADA

CITY           SKY/WX    TMP DP  RH WIND       PRES   REMARKS
ELY            CLEAR     31  19  61 S20G26    29.66R
EUREKA           N/A     35  16  45 W9        29.63R
$$

NVZ013-014-270600-
SOUTH CENTRAL NEVADA

CITY           SKY/WX    TMP DP  RH WIND       PRES   REMARKS
TONOPAH        CLEAR     31  20  63 S10       29.72R
$$

NVZ017-020-022-270600-
SOUTHERN NEVADA

CITY           SKY/WX    TMP DP  RH WIND       PRES   REMARKS
LAS VEGAS      PTCLDY    53  30  41 S9        29.78S
N. LAS VEGAS   CLEAR     52  32  46 S16G24    29.78S
NELLIS AFB     CLEAR     52  31  44 S15       29.79S
HENDERSON      CLOUDY    49  32  52 S14       29.82S
MERCURY        CLOUDY    46  32  58 S23G30    29.76S
$$



USA.gov is the U.S. government's official web portal to all federal, state and local government web resources and services.